This is the latest recevied weather packets stored in our database for station/object WB7AAV. If no packets are shown the sender has not sent any weather packets the latest 10 day(s).
| Time | Temp. | Humidity | Pressure | Rain* | Wind** | Luminosity | Snow |
|---|---|---|---|---|---|---|---|
| 1778105484 | 2.22° C | 88% | 1018.8 hPa | 2.03 mm | - | - | - |
| 1778105364 | 2.22° C | 89% | 1018.7 hPa | 2.03 mm | - | - | - |
| 1778105244 | 2.22° C | 90% | 1018.8 hPa | 1.78 mm | - | - | - |
| 1778105125 | 1.67° C | 88% | 1018.8 hPa | 2.03 mm | - | - | - |
| 1778105004 | 1.67° C | 88% | 1018.9 hPa | 2.03 mm | - | - | - |
| 1778104885 | 1.67° C | 87% | 1018.9 hPa | 2.03 mm | - | - | - |
| 1778104765 | 2.22° C | 88% | 1018.9 hPa | 1.78 mm | - | - | - |
| 1778104644 | 2.22° C | 88% | 1018.9 hPa | 1.78 mm | - | - | - |
| 1778104525 | 2.78° C | 89% | 1018.9 hPa | 2.03 mm | - | - | - |
| 1778104403 | 2.78° C | 91% | 1019 hPa | 2.03 mm | - | - | - |
| 1778104280 | 2.78° C | 91% | 1019 hPa | 1.78 mm | - | - | - |
| 1778104168 | 2.78° C | 93% | 1019 hPa | 2.03 mm | - | - | - |
| 1778104040 | 2.22° C | 93% | 1019 hPa | 2.03 mm | - | - | - |
| 1778103918 | 1.67° C | 90% | 1019 hPa | 1.78 mm | - | - | - |
| 1778103857 | 1.11° C | 91% | 1019.2 hPa | 1.78 mm | - | - | - |
| 1778103679 | 1.11° C | 90% | 1019.2 hPa | 2.03 mm | - | - | - |
| 1778103569 | 1.11° C | 90% | 1019.2 hPa | 2.03 mm | - | - | - |
| 1778103436 | 1.11° C | 91% | 1019.3 hPa | 1.78 mm | - | - | - |
| 1778103318 | 1.11° C | 91% | 1019.3 hPa | 2.03 mm | - | - | - |
| 1778103198 | 1.11° C | 90% | 1019.3 hPa | 2.03 mm | - | - | - |
| 1778103076 | 1.11° C | 92% | 1019.3 hPa | 2.03 mm | - | - | - |
| 1778102956 | 1.11° C | 91% | 1019.3 hPa | 1.78 mm | - | - | - |
| 1778102837 | 0.56° C | 91% | 1019.3 hPa | 2.03 mm | - | - | - |
| 1778102718 | 0.56° C | 91% | 1019.3 hPa | 2.03 mm | - | - | - |
| 1778102598 | 0.56° C | 90% | 1019.4 hPa | 1.78 mm | - | - | - |
* Rain latest hour (hover to see other rain measurements)
** Current wind speed in m/s (hover to see current wind gust speed)